This demonstration page uses our WeatherBlox Daily Observations layout. Learn more.

Left ArrowRight Arrow

Hourly Observations for October 26, 2016

Temp ( °F °C ) Dew Point ( °F °C ) Humidity (%) Winds ( mph kmh ) Pressure ( in mb ) Visibility ( mi km ) Precip ( " mm )
12:51 am 00:51 Clear 60 15.6 47 8.3 62 62 E 5 7 30.01 1016 10 16 0.00 0.00
1:51 am 01:51 Clear 60 15.6 47 8.3 62 62 E 5 7 30.00 1016 10 16 0.00 0.00
2:51 am 02:51 Clear 55 12.8 46 7.8 72 72 W 3 6 30.00 1016 10 16 0.00 0.00
3:51 am 03:51 Clear 54 12.2 45 7.2 72 72 Calm 30.01 1016 10 16 0.00 0.00
4:51 am 04:51 Clear 54 12.2 45 7.2 72 72 Calm 30.03 1017 10 16 0.00 0.00
5:51 am 05:51 Clear 54 12.2 45 7.2 72 72 NNE 3 6 30.05 1018 10 16 0.00 0.00
6:51 am 06:51 Sunny 54 12.2 46 7.8 75 75 Calm 30.08 1019 10 16 0.00 0.00
7:51 am 07:51 Sunny 62 16.7 47 8.3 58 58 Calm 30.09 1019 10 16 0.00 0.00
8:51 am 08:51 Sunny 68 20 47 8.3 47 47 Calm 30.09 1019 10 16 0.00 0.00
9:51 am 09:51 Sunny 76 24.4 45 7.2 33 33 ESE 13 20 30.09 1019 10 16 0.00 0.00
10:51 am 10:51 Sunny 79 26.1 46 7.8 31 31 SE 7 11 30.07 1018 10 16 0.00 0.00
11:51 am 11:51 Sunny 82 27.8 46 7.8 28 28 SSE 8 13 30.04 1017 10 16 0.00 0.00
12:51 pm 12:51 Sunny 84 28.9 45 7.2 25 25 VRB 7 11 30.01 1016 10 16 0.00 0.00
1:51 pm 13:51 Sunny 86 30 45 7.2 24 24 Calm 29.96 1015 10 16 0.00 0.00
2:51 pm 14:51 Sunny 87 30.6 44 6.7 22 22 VRB 7 11 29.95 1014 10 16 0.00 0.00
3:51 pm 15:51 Sunny 87 30.6 42 5.6 21 21 Calm 29.94 1014 10 16 0.00 0.00
4:51 pm 16:51 Sunny 86 30 42 5.6 21 21 S 3 6 29.94 1014 10 16 0.00 0.00
5:51 pm 17:51 Clear 79 26.1 45 7.2 30 30 SW 7 11 29.95 1014 10 16 0.00 0.00
6:51 pm 18:51 Clear 71 21.7 44 6.7 38 38 NE 3 6 29.99 1016 10 16 0.00 0.00
7:51 pm 19:51 Clear 69 20.6 43 6.1 39 39 E 5 7 29.99 1016 10 16 0.00 0.00
8:51 pm 20:51 Clear 67 19.4 43 6.1 42 42 E 7 11 29.99 1016 10 16 0.00 0.03
9:51 pm 21:51 Clear 67 19.4 42 5.6 41 41 ESE 7 11 30.00 1016 10 16 0.00 0.00
10:51 pm 22:51 Clear 66 18.9 41 5 40 40 E 8 13 30.01 1016 10 16 0.00 0.00
11:51 pm 23:51 Clear 64 17.8 41 5 43 43 ESE 7 11 30.01 1016 10 16 0.00 0.00

Powered by AerisWeather